GFSNW_925_spd_162.txt.gz
Wind_Speed
28 31 35 38 39 39 19 5 3 3 7 3 1 2 3 4 5 3 3 2 6 6 5 5 3 3 2 7 1 4 5 5 6 12 3 2 6 8 6 5 5 1 4 7
27 30 33 37 35 31 9 2 2 5 1 2 2 4 4 2 5 5 4 3 2 3 4 1 3 3 2 9 3 3 4 1 3 10 5 2 5 5 5 4 3 7 5 8
25 28 31 35 33 24 7 2 3 4 4 1 3 3 3 5 7 3 4 3 3 5 2 4 3 2 2 3 3 5 5 3 6 6 6 2 5 4 5 6 4 5 6 8
23 25 28 33 31 19 7 3 0 3 3 2 3 1 2 2 5 4 7 4 4 3 2 1 1 1 4 3 7 3 4 5 3 6 8 4 6 6 6 7 5 6 5 8
20 22 25 29 32 16 6 2 3 4 1 3 3 3 1 1 4 2 4 2 6 2 4 3 5 3 3 3 2 2 2 1 1 4 5 3 5 8 6 6 3 6 4 6
17 19 21 23 28 16 8 5 2 2 2 2 1 2 1 2 3 4 1 4 2 3 1 4 6 5 3 3 6 3 2 4 2 4 4 7 6 8 8 7 5 7 5 9
14 16 17 19 21 22 8 4 2 2 3 1 2 1 2 4 4 4 6 4 3 1 5 5 2 2 4 4 7 5 6 4 4 4 4 5 7 5 6 8 5 4 5 6
13 13 14 15 16 18 16 2 2 1 2 3 5 2 3 6 5 4 3 3 2 5 4 2 2 3 4 5 7 7 6 5 3 4 6 5 12 4 4 4 4 0 2 7
12 11 12 13 13 15 16 4 5 2 1 4 2 2 2 2 3 5 4 4 6 3 2 2 6 5 5 4 1 6 5 4 4 3 6 9 9 3 4 3 5 6 7 6
11 11 11 11 11 12 14 1 8 1 2 3 3 4 3 1 1 2 4 7 6 3 1 3 4 5 4 5 5 4 1 1 5 4 4 6 3 8 3 4 4 9 5 9
10 10 10 10 10 9 12 5 3 4 2 6 5 4 4 0 1 3 3 4 2 3 2 2 3 3 3 0 3 5 6 5 4 2 2 6 3 5 3 2 4 6 6 7
11 11 9 9 9 8 9 3 8 10 5 6 8 16 18 14 9 4 2 2 2 4 2 1 0 2 1 2 3 1 2 6 4 7 5 2 2 5 3 2 3 5 5 8
11 11 9 9 9 8 6 8 10 5 2 5 3 5 4 8 28 27 4 3 5 3 4 3 1 3 3 2 4 2 2 2 2 2 3 3 8 4 5 4 5 8 10 8
10 10 9 9 10 9 10 11 11 4 4 3 6 6 12 8 11 23 31 8 2 1 2 2 2 2 4 3 4 4 4 4 3 4 7 8 5 3 4 4 6 6 6 6
11 11 11 12 11 13 15 18 16 14 3 3 5 18 6 5 10 19 23 20 6 0 2 2 4 2 1 2 1 5 5 6 4 9 8 7 8 6 4 5 9 7 5 9
12 12 10 11 12 12 8 2 2 6 10 3 4 5 5 10 10 13 9 12 3 3 4 4 3 4 4 3 4 5 8 6 12 12 7 12 8 8 7 7 9 8 7 8
12 12 10 11 12 10 3 3 2 9 7 2 4 5 4 8 4 1 2 7 3 4 3 3 3 3 5 3 11 6 8 10 9 9 4 6 7 7 3 6 8 8 11 12
13 12 11 11 12 13 9 2 9 15 4 1 2 4 5 4 3 3 1 1 0 3 2 1 2 1 2 5 8 6 5 7 8 12 10 15 14 5 7 5 5 6 8 9
10 9 11 5 2 2 4 5 3 12 1 2 2 2 4 5 2 2 3 2 2 1 2 3 4 3 5 8 6 6 6 4 6 5 5 6 7 9 8 7 9 9 9 8
8 4 2 1 1 7 4 3 1 0 1 1 2 2 3 0 1 3 2 1 2 2 4 1 3 4 6 7 6 7 9 9 7 7 10 6 6 6 8 11 11 10 8 7
2 3 1 5 2 2 2 2 2 2 2 3 3 4 3 2 3 3 1 2 2 2 3 2 3 2 2 6 8 8 7 7 7 8 11 11 12 10 7 6 9 7 7 7
6 7 7 4 1 2 2 2 1 3 3 3 3 4 5 3 2 2 2 2 0 3 3 3 3 1 3 10 14 13 8 7 9 8 10 11 11 11 9 6 6 8 13 11
1 1 2 1 1 1 3 3 2 2 3 3 2 3 2 2 2 2 2 2 2 3 2 2 3 9 8 11 11 12 10 9 8 10 8 11 10 11 8 6 8 10 12 15
1 1 3 3 3 4 3 2 2 3 3 3 3 3 2 1 1 2 3 2 2 1 2 3 7 13 14 12 11 10 11 10 9 9 9 8 5 4 7 7 8 10 8 13
2 1 3 4 4 3 3 3 2 2 1 2 2 2 0 2 2 2 2 4 3 2 3 3 8 13 12 11 11 10 10 9 8 5 6 7 4 5 6 9 7 11 14 15
2 3 3 3 1 3 3 2 3 2 1 0 1 1 2 2 2 3 1 1 3 3 4 7 8 13 12 11 9 10 9 8 7 6 5 7 4 5 6 7 10 8 13 16
3 4 3 3 4 5 3 2 3 1 2 2 1 2 2 1 1 3 2 3 5 6 9 8 7 9 14 14 13 9 8 7 5 6 7 7 9 9 5 3 8 6 9 15

GFSNW_925_spd_165.txt.gz
Wind_Speed
29 32 35 39 40 38 19 4 1 5 5 1 1 2 2 2 2 2 1 1 3 3 2 4 4 5 2 3 4 7 8 4 7 13 1 2 5 10 9 8 5 2 3 10
28 30 34 37 38 30 11 3 2 4 3 2 2 1 2 2 3 3 3 2 1 1 2 4 3 4 2 5 3 5 7 4 4 4 4 3 6 8 15 9 4 12 11 10
26 29 32 35 34 25 7 2 1 2 3 2 1 1 0 2 2 1 3 3 0 1 2 0 3 5 2 2 2 4 4 3 5 10 6 2 5 6 9 15 9 10 11 15
24 26 29 33 33 20 6 4 2 2 3 2 2 1 1 1 1 2 3 2 4 2 3 1 3 2 1 1 2 3 3 8 4 9 10 8 11 14 9 12 16 10 12 10
21 23 26 29 34 19 6 3 3 1 1 3 3 1 3 3 1 2 1 3 6 2 3 1 3 1 2 3 1 3 2 4 3 5 9 8 11 13 12 13 12 11 8 10
19 19 22 25 28 19 7 4 1 2 1 1 2 1 1 2 3 3 1 5 4 4 1 7 9 8 8 5 3 2 2 4 4 11 7 10 15 12 16 15 11 12 12 13
16 16 18 19 21 22 7 3 2 2 1 2 2 2 3 5 4 4 6 8 3 3 10 7 3 5 7 7 10 6 3 3 3 7 7 16 7 3 8 10 14 13 11 10
14 14 15 16 16 17 11 4 2 2 3 3 6 4 5 6 5 5 6 6 3 7 4 3 4 4 4 9 14 14 11 9 7 9 12 15 15 12 4 3 6 5 6 8
11 12 13 14 14 14 14 4 5 1 3 2 4 2 2 3 3 4 3 3 7 2 2 3 6 7 5 5 4 3 6 8 9 7 12 17 10 17 3 2 12 7 6 8
9 10 10 10 12 12 13 2 9 1 2 3 3 4 2 1 1 3 4 5 2 2 3 7 9 11 3 9 13 7 5 4 13 13 12 9 3 7 2 10 2 9 10 9
9 9 9 9 10 10 9 4 4 4 3 8 7 4 6 3 3 3 2 4 3 2 4 3 3 4 4 5 6 6 11 7 6 5 8 13 5 3 5 6 6 8 9 9
9 9 8 7 8 7 7 1 7 7 6 5 5 13 14 14 13 2 2 3 2 2 1 2 1 3 2 2 7 2 5 6 5 6 4 2 3 6 9 6 7 9 10 11
8 8 8 7 7 7 5 6 8 4 3 6 4 3 2 9 23 24 5 3 3 2 2 2 1 5 1 3 4 3 3 4 4 3 6 3 5 12 6 4 6 10 12 13
7 7 8 8 9 9 10 9 8 3 4 3 3 4 9 9 10 18 31 9 1 3 2 3 3 4 3 5 5 5 4 2 4 5 10 13 10 1 4 9 11 12 12 13
9 10 9 9 10 10 13 17 14 10 3 3 6 22 4 2 3 12 18 19 11 4 3 4 4 3 4 6 5 11 10 11 9 12 14 12 17 16 15 12 12 14 11 14
11 11 10 8 10 10 7 1 3 4 9 2 4 5 4 6 6 11 15 14 7 5 4 4 4 4 4 7 10 13 13 15 17 16 15 17 17 17 14 16 15 16 11 11
11 12 11 9 9 9 3 2 2 11 2 2 4 5 3 5 4 2 3 10 4 4 3 4 4 9 5 9 15 20 17 17 16 16 15 16 16 12 11 11 16 15 15 13
12 11 9 9 10 11 5 2 9 14 3 2 3 4 4 5 3 1 2 4 4 5 4 3 6 3 3 6 12 12 7 5 9 12 12 17 17 15 16 15 13 15 14 11
10 9 9 3 2 1 3 7 3 13 2 2 2 3 3 5 2 2 2 2 4 2 4 3 3 5 6 9 8 7 7 7 13 13 12 10 11 13 12 12 14 15 14 12
6 2 1 1 0 6 3 2 1 2 2 2 3 2 3 1 2 2 3 1 2 2 1 1 4 6 10 9 7 7 9 10 10 10 11 9 10 12 14 14 13 13 13 11
2 3 1 4 3 2 1 2 3 2 3 3 3 5 4 3 4 3 1 2 1 2 0 3 2 3 0 7 10 9 14 13 12 12 14 13 13 13 13 14 14 12 12 11
5 5 5 4 1 2 2 2 2 3 3 3 3 3 4 3 3 2 2 3 1 3 4 3 4 4 8 9 12 16 16 14 12 11 12 13 13 14 15 15 13 12 14 12
1 2 2 1 1 1 3 3 2 2 2 3 2 3 2 2 2 3 1 3 2 2 1 2 3 10 12 12 12 14 13 13 11 11 11 12 12 15 14 11 16 12 11 10
1 1 2 3 3 4 2 2 2 2 4 5 2 3 2 0 1 2 3 2 2 1 2 4 5 11 15 13 11 10 12 12 12 11 11 10 10 9 8 13 11 9 8 8
1 1 3 4 3 4 4 4 3 3 2 3 2 2 1 1 3 2 3 4 3 2 4 4 6 15 14 12 10 11 11 10 10 10 10 10 7 6 6 9 7 6 5 5
1 3 3 4 3 3 2 3 3 2 3 1 1 2 1 2 3 3 2 4 3 3 5 10 11 14 14 12 10 12 11 10 9 8 10 10 7 5 4 4 5 6 6 6
3 4 5 6 6 6 4 2 3 3 3 3 1 3 3 2 2 2 2 2 5 8 10 8 10 12 13 14 13 10 10 10 10 12 10 9 6 3 4 4 3 8 11 11

GFSNW_925_spd_168.txt.gz
Wind_Speed
29 32 35 38 40 38 15 5 3 1 3 6 3 7 3 1 4 4 4 6 7 8 6 12 12 11 6 4 7 10 18 9 12 17 13 6 13 15 20 12 17 12 10 12
27 30 33 35 36 30 12 5 2 1 3 5 7 2 5 4 5 4 3 5 4 2 8 7 9 6 6 3 10 8 9 10 11 15 12 13 11 16 14 14 15 18 14 11
25 27 31 34 32 25 6 4 3 3 3 2 6 4 7 7 3 4 4 5 6 7 10 9 4 10 7 2 3 4 4 14 11 13 7 6 5 8 11 14 15 15 17 20
23 25 28 32 30 20 5 3 3 3 1 3 4 5 2 6 6 4 3 5 5 5 7 10 12 9 8 8 6 5 7 13 14 14 18 15 14 15 15 15 14 17 20 19
21 22 25 29 30 15 3 5 4 2 4 3 6 4 5 8 7 5 8 8 4 6 9 7 9 5 7 11 10 11 10 14 13 15 16 18 21 19 19 18 18 18 17 21
19 19 21 24 27 15 6 5 2 4 2 2 5 2 3 2 2 5 6 4 9 10 3 6 9 9 10 8 9 10 10 11 10 17 15 16 20 17 20 22 21 17 17 17
16 16 17 19 20 17 6 5 6 4 3 4 3 3 3 6 5 9 5 6 8 6 10 12 10 12 12 12 12 11 10 11 12 14 15 22 14 19 9 13 16 17 17 15
13 13 14 15 16 16 7 5 4 3 6 4 8 6 7 7 8 10 11 11 6 9 10 9 12 12 15 17 16 16 15 12 13 15 16 18 15 5 10 12 14 6 7 11
11 11 11 11 13 13 7 4 4 4 5 2 3 5 4 8 7 7 7 3 6 6 7 9 13 11 9 8 14 10 17 15 13 14 19 22 14 14 11 11 17 6 4 5
9 10 10 10 10 12 8 2 6 3 4 4 4 4 5 3 4 6 4 2 5 6 9 10 12 13 11 15 16 8 11 13 17 17 18 21 15 2 3 13 6 4 5 6
8 9 9 8 7 8 7 4 3 6 4 8 8 9 8 6 5 6 4 6 6 5 8 8 7 7 9 11 17 16 16 14 14 15 19 23 4 5 13 8 7 6 7 7
6 7 7 6 6 7 7 3 3 6 7 6 12 14 15 15 14 7 4 5 3 4 4 2 4 6 6 10 12 9 13 15 12 11 7 5 4 3 4 9 7 6 8 9
5 6 6 5 5 6 6 7 8 9 5 8 7 3 6 8 19 20 7 5 4 3 4 6 4 5 5 9 9 12 9 7 8 13 13 16 8 8 9 2 4 8 11 11
5 6 8 7 8 8 6 9 8 6 5 4 2 3 6 6 9 11 18 16 2 4 5 6 7 7 3 9 12 11 10 7 10 15 16 16 14 12 3 12 14 12 10 12
6 8 9 9 8 9 8 9 7 8 5 4 7 17 0 3 4 13 12 15 12 6 5 5 8 7 8 10 13 12 13 17 13 14 14 13 13 16 16 16 14 14 12 13
8 9 10 9 9 9 6 3 1 3 4 2 4 5 3 3 4 8 10 11 8 6 4 5 8 14 10 7 12 15 12 14 16 16 17 19 18 19 18 17 16 15 15 12
11 11 10 9 9 5 4 3 1 5 3 2 4 2 3 2 4 3 4 8 5 6 6 7 11 11 6 11 16 20 18 16 17 17 17 20 20 17 19 16 17 13 17 19
10 9 8 7 7 7 3 1 10 7 4 3 3 3 3 3 4 3 5 5 6 7 7 9 8 8 4 7 13 8 7 5 8 8 7 13 15 14 14 15 15 17 16 14
10 9 6 2 3 2 1 6 5 10 3 3 3 4 3 5 5 5 4 5 5 3 6 9 5 7 6 10 8 8 6 8 12 15 17 16 16 18 15 13 14 15 14 13
4 1 4 3 2 4 4 3 2 3 4 3 4 0 3 4 3 2 3 3 3 3 3 1 5 10 15 6 10 11 12 12 14 14 16 13 13 14 17 17 15 15 14 13
2 1 1 2 1 3 3 2 3 3 3 4 4 5 7 3 5 3 2 4 3 3 2 3 3 1 5 9 11 9 12 11 15 16 17 16 15 14 14 14 14 14 14 13
4 5 5 3 3 2 3 3 3 4 3 2 2 4 5 2 1 1 2 3 2 3 4 2 3 2 8 14 15 16 15 18 16 14 17 17 16 14 14 13 15 15 17 15
2 2 2 1 2 2 4 4 3 2 2 1 5 6 3 1 1 3 2 3 2 2 2 2 4 9 11 15 13 13 12 12 14 17 16 15 13 13 14 14 18 17 14 14
2 2 2 4 4 5 3 0 2 3 4 7 6 6 1 2 2 1 2 2 3 1 2 4 5 11 14 14 11 10 13 13 13 14 11 11 10 12 11 13 13 10 10 11
2 2 3 5 4 3 3 4 4 3 4 6 7 2 1 1 2 2 3 3 2 2 3 5 8 15 16 14 13 10 11 11 10 10 9 10 9 6 9 9 9 7 5 8
3 4 4 5 5 5 4 3 3 3 5 4 3 2 1 1 1 2 2 3 3 4 5 9 10 14 15 12 11 11 11 11 11 8 10 10 8 6 5 2 5 6 5 4
3 4 6 7 7 6 6 4 3 5 4 5 3 3 2 2 3 2 2 3 9 10 12 10 14 14 12 10 10 10 7 10 9 9 9 7 5 5 5 2 2 7 8 8

GFSNW_925_spd_171.txt.gz
Wind_Speed
29 31 33 34 37 39 16 7 4 7 7 7 8 12 11 4 11 7 10 8 15 15 11 15 13 18 16 14 13 13 18 11 14 18 13 17 17 15 13 11 17 11 13 12
27 30 32 32 32 31 14 6 5 6 10 8 9 12 7 7 11 10 6 9 10 12 13 12 14 16 12 5 9 8 12 11 15 16 14 17 12 16 17 16 16 17 12 10
26 28 30 30 29 23 9 5 3 5 7 11 11 13 9 13 7 11 7 11 12 9 15 15 14 14 8 4 11 8 5 13 16 13 16 8 8 11 18 18 14 14 15 17
24 26 28 29 27 18 7 2 3 5 4 2 7 9 11 10 13 9 6 10 12 14 12 15 16 17 14 12 6 8 11 19 19 21 21 20 18 13 15 14 15 15 18 20
21 23 25 28 26 17 5 5 4 7 11 9 10 8 11 13 14 8 13 10 14 6 11 14 16 9 17 16 13 15 17 17 18 21 20 19 22 20 21 21 20 21 21 20
18 19 21 24 26 18 6 10 6 5 5 9 7 5 8 6 6 10 10 13 10 11 9 12 11 11 16 10 11 14 13 15 16 20 21 22 23 23 23 23 22 19 21 20
16 16 17 19 20 16 11 9 10 6 9 3 7 8 7 10 9 10 12 4 9 6 12 14 14 17 18 18 17 15 16 18 12 16 19 22 18 18 18 18 20 17 18 19
13 13 15 15 16 15 10 8 7 5 7 9 9 8 8 9 9 12 14 14 12 10 11 11 14 13 17 20 21 19 17 16 15 16 17 24 21 13 13 18 17 14 17 18
11 12 12 13 13 14 10 5 7 7 6 6 8 10 10 10 10 10 10 7 7 11 10 10 16 13 15 15 22 21 21 19 15 15 21 26 17 12 7 14 15 13 17 8
9 9 10 11 11 11 10 5 6 8 7 7 5 5 8 9 8 8 8 5 7 10 9 11 13 14 15 16 17 12 10 11 17 17 19 21 20 20 11 12 8 7 8 8
7 8 9 9 9 10 11 6 4 7 6 13 14 12 9 8 7 8 6 7 11 8 10 10 11 11 13 14 15 17 14 13 13 13 20 26 15 19 19 1 3 2 2 4
5 6 7 7 7 8 10 6 5 7 8 9 18 18 19 17 15 10 9 10 8 5 7 4 6 8 7 10 12 8 14 16 15 16 9 8 11 10 4 7 4 4 3 7
5 6 6 6 6 8 7 10 10 13 9 13 13 5 6 8 14 17 10 7 6 5 5 8 8 8 8 9 9 12 14 5 10 13 15 15 8 13 6 6 6 3 5 10
5 6 7 8 9 9 8 11 9 9 9 5 3 4 6 5 9 9 13 17 10 8 6 8 8 10 5 10 12 12 11 8 12 12 18 22 19 12 11 5 3 7 12 13
6 8 10 10 10 10 9 9 6 5 6 6 9 18 7 5 4 13 12 11 10 8 8 8 9 10 7 10 12 13 14 16 13 15 12 13 10 15 13 11 14 13 15 15
8 9 10 10 11 9 9 4 1 2 4 4 4 7 4 5 4 7 11 11 7 8 8 7 8 14 9 8 12 17 16 14 15 16 19 20 20 15 17 18 18 18 18 18
10 11 10 10 9 6 8 5 1 1 2 2 5 2 6 5 8 8 6 11 7 8 9 10 10 10 5 11 16 22 19 19 19 19 18 19 20 17 18 20 20 21 22 24
10 10 9 8 7 7 4 1 10 4 6 4 4 4 2 2 4 2 6 7 7 6 9 9 7 7 4 7 15 18 18 18 13 12 12 14 13 12 15 17 15 18 18 18
10 9 6 2 4 4 3 2 2 7 4 3 3 4 2 5 7 5 3 3 4 5 7 11 5 9 8 10 8 9 11 10 12 13 13 17 16 18 19 16 20 16 16 17
4 1 4 3 3 1 2 2 3 4 4 3 4 5 6 5 5 3 5 2 3 3 2 2 5 11 10 10 10 12 17 17 16 15 17 17 17 15 15 17 16 16 16 13
3 4 1 1 1 4 3 3 3 3 4 5 5 6 6 5 5 4 3 4 3 3 4 5 4 3 6 9 12 14 17 19 19 20 19 18 19 18 17 15 15 12 12 12
5 6 6 5 3 4 4 3 3 5 2 2 4 6 4 3 3 3 2 3 2 2 3 2 3 4 9 11 15 18 15 15 17 20 22 20 19 18 16 13 14 16 19 17
4 4 3 3 3 3 5 3 3 2 2 1 5 5 3 2 3 2 2 2 3 3 2 3 5 6 11 11 12 15 14 15 16 17 17 20 20 23 18 15 19 21 21 22
3 3 3 5 4 5 3 2 1 2 3 7 6 3 1 2 1 1 3 1 2 2 2 4 8 9 15 17 11 13 16 16 16 16 14 14 14 13 16 16 17 16 16 19
3 3 4 7 6 5 4 2 3 4 6 7 7 2 1 3 2 1 3 2 2 3 4 6 10 15 13 14 12 12 12 13 14 14 12 12 11 10 10 11 15 14 16 14
3 5 7 6 6 3 1 2 3 5 5 5 2 1 1 1 2 3 3 2 3 4 5 10 12 15 14 14 8 9 8 9 10 10 12 12 9 8 9 11 8 9 9 8
3 5 8 7 6 5 5 4 4 8 4 3 3 4 1 2 3 2 2 3 8 10 10 10 12 13 12 11 12 10 7 8 10 11 11 6 3 3 6 6 7 8 9 8